CAPE
393 766 1434 1454 1382 1092 412 340 225 13 10 317 576 711 756 656 257 178 8 0 0 0 0 0 0 0 1 0 2 16 6 0 80 3 38 1 1 1 1 0 0 0 0
0 194 297 391 657 581 596 366 29 1 0 175 479 635 559 159 1 0 0 0 0 0 0 0 0 0 0 0 0 10 22 0 10 33 0 1 1 1 0 1 4 2 0
0 0 0 35 262 267 295 418 160 0 0 0 5 170 43 0 0 0 0 0 0 0 0 0 0 0 0 0 0 0 0 2 0 0 33 1 2 1 1 1 3 0 0
0 0 0 0 0 10 108 31 68 8 0 0 0 0 0 0 0 0 0 0 0 0 0 0 0 0 0 0 0 0 0 0 0 0 49 1 1 2 0 1 2 1 0
0 0 0 0 0 0 0 5 37 8 3 0 0 0 0 0 0 0 0 0 0 0 0 0 0 0 0 0 0 0 0 0 0 0 45 1 1 1 0 1 1 3 3
0 0 0 0 0 0 0 0 0 5 11 0 0 0 0 0 0 0 0 0 0 0 0 0 0 0 0 0 0 0 0 0 0 0 0 1 0 0 1 0 1 2 3
0 0 0 0 0 1 0 0 0 0 4 12 0 9 12 0 0 0 0 0 0 0 0 0 0 0 0 0 0 0 0 0 0 0 0 4 0 0 0 0 0 0 0
0 0 0 0 0 0 0 0 0 0 0 0 0 31 21 35 22 21 8 0 0 0 0 0 0 0 0 0 0 0 0 0 0 0 0 0 0 0 0 0 0 0 1
0 0 0 0 0 0 0 0 0 0 0 0 1 1 0 7 4 0 0 0 0 0 0 0 0 0 0 0 0 0 0 0 0 0 0 0 1 0 0 0 1 0 2
0 0 7 0 0 0 0 0 0 0 0 0 0 0 0 0 0 0 0 0 0 0 0 0 0 0 0 0 0 0 0 0 0 0 0 0 1 0 0 0 0 0 0
0 0 0 0 0 0 0 0 0 0 0 0 0 0 0 0 0 0 0 0 0 0 0 0 0 0 0 0 0 0 0 0 0 0 0 0 0 0 0 0 0 0 0
0 0 0 0 0 0 0 0 0 0 0 0 0 0 0 0 0 0 0 0 0 0 0 0 0 0 0 0 0 0 0 0 0 0 0 0 1 0 1 1 0 0 0
0 0 0 0 0 0 0 0 0 0 0 0 0 0 0 0 0 0 0 0 0 0 0 0 0 0 0 0 0 0 0 0 0 0 0 0 0 0 1 1 1 1 0
0 0 0 0 0 0 0 0 0 0 0 0 0 0 0 0 0 0 0 0 0 0 0 0 0 0 0 0 0 0 0 0 0 0 0 0 0 1 1 1 1 0 0
0 0 0 0 0 0 0 0 0 0 0 0 0 0 0 0 0 0 0 0 0 0 0 0 0 0 0 0 0 0 0 0 0 0 0 0 0 3 2 2 0 0 0
5 4 4 4 3 1 0 0 0 0 0 0 0 0 0 0 0 0 0 0 0 0 0 0 0 0 0 0 0 0 0 0 0 0 0 0 0 2 0 2 0 0 0
8 6 7 8 8 5 3 3 4 1 0 0 0 0 0 0 0 0 0 0 0 0 0 0 3 8 0 0 0 0 0 0 0 0 0 0 0 1 0 0 0 0 0
22 20 19 13 12 10 8 8 8 7 6 4 0 0 0 0 0 0 0 0 0 0 0 0 1 8 19 0 0 0 0 0 0 0 0 0 1 4 5 1 0 0 0
16 15 18 18 17 16 14 14 17 17 12 9 8 1 0 0 0 0 0 0 0 1 0 0 1 9 0 17 0 0 0 0 0 1 0 0 0 8 1 0 0 0 0
10 13 8 8 9 12 15 16 12 13 13 16 16 10 4 0 0 0 0 0 0 1 0 0 0 3 0 0 0 1 1 0 0 4 2 0 2 8 0 1 0 0 0
6 7 1 5 6 7 9 9 8 11 13 11 9 5 2 9 3 2 1 1 0 0 0 0 0 1 0 0 0 11 2 1 2 6 24 12 3 1 1 0 0 0 0
6 6 7 7 6 5 5 7 7 9 8 9 6 7 0 0 6 7 7 6 1 0 0 0 0 0 0 0 0 6 44 17 10 14 28 10 0 0 0 0 0 0 0
2 2 3 3 5 3 5 5 8 8 7 7 6 5 6 1 2 5 6 6 6 2 0 0 0 0 0 0 0 1 25 50 42 41 33 4 0 0 0 0 0 0 0
3 7 3 4 5 2 4 4 5 1 5 5 4 5 5 4 7 3 3 3 5 6 0 0 1 1 0 0 0 4 26 18 68 59 19 0 0 0 0 0 0 0 0
3 5 6 8 8 6 1 3 4 4 5 4 4 5 4 5 3 7 2 2 4 6 10 1 1 1 0 1 2 28 25 0 67 55 24 0 0 0 0 0 0 0 0
4 5 5 6 6 7 7 5 4 3 3 3 4 1 1 3 2 2 4 3 3 3 4 1 0 0 0 1 5 11 0 0 0 1 0 0 0 0 0 0 0 0 0
CIN
-423 -356 -221 -215 -214 -276 -363 -352 -361 -310 -453 -352 -304 -290 -273 -277 -328 -344 -183 0 0 0 0 0 0 0 -72 0 -37 -189 -179 0 -85 -29 -183 0 0 0 0 0 0 0 0
-2 -387 -392 -404 -290 -293 -336 -386 -539 -243 0 -382 -308 -258 -266 -364 -18 -13 0 0 0 0 0 0 0 0 0 0 0 -198 -160 0 -88 -148 0 0 0 0 0 0 0 0 0
0 0 0 -345 -327 -297 -356 -334 -445 0 0 0 -391 -357 -412 0 0 0 0 0 0 0 0 0 0 0 0 0 0 0 0 -124 0 0 -134 0 0 0 0 0 0 0 0
0 0 0 0 0 -361 -325 -393 -426 -357 0 0 0 0 0 0 0 0 0 0 0 0 0 0 0 0 0 0 0 0 0 0 0 0 -132 0 0 0 0 0 0 -1 -1
0 0 0 0 0 0 0 -73 -300 -335 -332 0 0 0 -88 0 0 0 0 0 0 0 0 0 0 0 0 0 0 0 0 0 0 0 -115 0 0 0 0 0 0 0 0
0 0 0 0 0 0 0 0 0 -234 -286 0 -6 -7 0 0 0 0 0 0 0 0 0 0 0 0 0 0 0 0 0 0 0 0 0 -2 0 0 0 0 0 0 0
0 0 0 0 0 -71 0 0 0 0 -147 -215 0 -313 -307 0 0 0 0 0 0 0 0 0 0 0 0 0 0 0 0 0 0 0 0 -44 0 0 0 0 0 0 0
0 0 0 0 0 0 0 0 0 0 0 0 -59 -181 -215 -216 -217 -175 -90 0 0 0 0 0 0 0 0 0 0 0 0 0 0 0 0 0 0 0 0 0 0 0 0
0 0 0 0 0 0 0 0 0 0 0 0 -30 -32 0 -190 -20 0 0 0 0 0 0 0 0 0 0 0 0 0 0 0 0 0 0 0 0 0 0 0 0 0 0
0 -20 -74 -9 0 0 0 0 0 0 0 0 0 0 0 0 0 0 0 0 0 0 0 0 0 0 0 0 0 0 0 0 0 0 0 0 0 0 0 0 0 0 0
0 0 0 0 0 0 0 0 0 0 0 0 0 0 0 0 0 0 0 0 0 0 0 0 0 0 0 0 0 0 0 0 0 0 0 0 0 0 0 0 0 0 0
0 0 0 0 0 0 0 0 0 0 0 0 0 0 0 0 0 0 0 0 0 0 0 0 0 0 0 0 0 0 0 0 0 0 0 0 0 0 0 0 0 0 0
0 0 0 0 0 0 0 0 0 0 0 0 0 0 0 0 0 0 0 0 0 0 0 0 0 0 0 0 0 0 0 0 0 0 0 0 0 0 0 0 0 0 0
0 0 0 0 0 0 0 0 0 0 0 0 0 0 0 0 0 0 0 0 0 0 0 0 0 0 0 0 0 0 0 0 0 0 0 0 0 0 0 0 0 0 0
0 0 0 0 0 0 0 0 0 0 0 0 0 0 0 0 0 0 0 0 0 0 0 0 0 0 0 0 0 0 0 0 0 0 0 0 0 -1 -16 -6 0 0 0
0 0 0 0 -1 0 -1 0 0 0 0 0 0 0 0 0 0 0 0 0 0 0 0 0 -1 0 0 0 0 0 0 0 0 0 0 0 0 -1 0 -2 0 0 0
0 0 0 0 0 0 0 0 0 -2 0 0 0 0 0 0 0 0 0 0 0 0 0 0 -1 -1 0 0 0 0 0 0 0 0 0 0 0 -7 0 0 0 0 0
0 0 0 0 0 0 0 0 0 0 0 0 0 0 0 0 0 0 0 0 0 0 0 -1 0 -1 -2 -1 0 0 0 0 0 0 0 0 -8 -3 -39 -28 0 0 0
0 0 0 0 0 0 0 0 0 0 0 0 0 0 0 0 0 0 0 0 0 -1 0 0 -1 -1 0 -2 0 0 0 0 0 0 0 0 0 -8 -5 0 0 0 0
0 0 0 0 0 0 0 0 0 0 0 0 0 0 -1 0 0 0 0 0 0 0 -1 0 0 -1 0 0 0 -4 -1 0 0 -94 -52 0 -12 -9 0 -37 0 0 0
0 0 0 0 0 0 0 0 0 0 0 0 0 0 -2 0 0 0 0 0 0 0 0 0 -1 -1 0 0 0 0 -3 -1 -44 -75 -48 -20 -6 -14 -3 0 0 0 0
0 0 0 0 0 0 0 0 0 0 0 0 0 0 0 0 0 -1 -1 0 0 0 0 0 -1 -1 -1 -1 0 -3 -14 -7 -26 -50 -44 -21 0 0 0 0 0 0 0
0 0 0 0 0 0 0 0 0 0 0 0 0 0 0 0 0 0 0 -1 -1 0 -1 -2 -2 0 0 0 0 -2 -2 -6 -2 -16 -39 -30 0 0 0 0 0 0 0
0 0 0 0 0 0 0 0 0 0 0 0 0 0 0 0 0 0 0 -1 -1 -1 0 -1 -1 -1 -3 0 0 -2 -1 -4 -6 -3 -46 0 0 0 0 0 0 0 0
0 0 0 0 0 0 0 0 0 0 0 0 0 0 0 0 0 0 0 -1 0 0 0 0 -1 -1 -1 -1 -1 -1 -3 0 -4 -9 -28 0 0 0 0 0 0 0 0
0 0 0 0 0 0 0 0 0 0 0 0 0 0 0 0 0 0 0 0 0 0 0 0 0 0 0 -1 -2 -5 0 0 0 -41 0 0 0 0 0 0 0 0 0
Wind_Speed
2 1 5 7 6 7 10 10 11 8 8 9 11 10 9 9 7 7 6 6 6 5 3 4 3 2 1 1 2 2 3 3 3 1 2 2 2 6 8 7 10 7 6
7 4 2 1 3 6 7 9 10 12 8 10 10 11 10 9 7 7 7 6 6 6 6 4 3 2 0 0 1 2 2 3 3 3 2 2 3 5 8 9 7 6 6
9 8 6 4 1 5 7 8 7 7 10 9 11 12 11 10 8 7 7 7 7 7 7 6 5 4 2 1 1 2 1 1 2 2 3 2 3 4 6 6 7 7 5
7 9 8 8 6 5 4 6 5 6 5 6 8 10 10 10 10 9 7 7 7 7 6 6 6 6 5 5 3 2 2 2 1 2 3 2 3 3 4 7 6 4 5
5 3 6 6 10 11 12 8 6 5 1 3 6 7 10 11 9 10 9 8 8 7 6 6 6 7 10 8 4 3 4 3 1 2 2 2 3 4 7 5 5 7 4
5 3 2 5 7 8 7 9 5 4 6 5 1 0 1 1 7 11 9 7 7 7 7 7 6 6 7 9 9 9 7 5 3 3 3 4 5 4 7 9 7 7 4
6 5 4 4 6 9 5 5 9 7 4 4 7 7 7 7 8 9 8 6 7 7 7 6 5 5 7 7 8 8 7 9 8 5 5 6 6 9 11 11 10 11 4
8 8 6 5 5 3 3 6 5 5 7 5 5 7 7 7 12 11 12 9 6 7 8 8 7 7 7 7 6 5 6 4 5 5 7 8 6 11 14 11 12 7 6
10 10 10 5 7 8 9 11 10 8 9 6 4 4 3 6 9 13 9 6 5 7 7 7 8 7 10 9 6 6 6 5 4 8 9 8 5 13 13 10 9 10 3
11 10 9 4 4 5 4 4 2 3 4 4 5 5 5 3 3 6 6 3 5 6 6 7 11 10 12 12 8 7 6 7 4 4 4 4 6 12 20 14 13 11 5
7 5 5 5 6 5 4 3 2 4 4 5 5 4 5 4 6 7 4 3 4 4 6 4 5 14 14 13 13 8 9 6 5 3 4 4 3 7 10 8 12 11 9
7 6 6 5 4 3 4 5 6 6 6 6 5 5 5 6 10 11 12 10 8 6 5 5 5 12 16 16 11 13 12 8 4 4 3 4 4 6 9 9 11 10 9
8 8 7 6 5 5 6 6 6 5 7 8 6 7 6 6 6 14 15 15 13 7 7 8 11 14 17 15 14 16 11 6 5 4 5 4 4 6 7 8 8 9 5
12 10 8 10 11 11 9 8 9 9 9 9 10 11 9 6 7 7 8 8 12 10 7 7 9 11 14 12 7 8 6 7 7 7 5 4 4 4 6 7 6 7 5
13 12 12 10 11 10 10 9 9 10 11 10 10 9 9 9 9 11 12 9 8 8 6 4 6 6 8 7 6 6 7 6 7 5 5 5 5 7 7 7 6 7 6
14 11 10 10 10 9 9 10 16 20 18 18 19 15 10 13 11 14 16 16 13 10 4 7 8 8 10 9 9 8 8 9 7 7 7 7 7 9 8 6 7 8 9
14 13 11 12 10 10 10 10 11 11 19 23 23 20 19 19 14 15 12 10 10 7 3 5 8 9 9 9 10 10 10 10 11 9 9 9 9 10 9 8 7 8 8
14 19 12 11 11 10 11 11 10 11 11 11 16 19 19 21 19 18 16 9 11 10 9 9 8 9 10 9 9 9 8 8 10 9 9 10 9 10 8 9 10 10 9
12 10 11 10 9 11 11 11 11 11 12 12 10 12 16 18 20 21 19 13 13 13 13 11 10 9 6 6 9 9 10 10 10 10 10 10 10 8 9 9 10 11 12
12 19 18 11 10 11 11 10 10 11 12 11 11 12 9 7 10 11 12 12 11 11 11 11 11 11 10 8 7 10 11 9 10 10 10 9 9 10 10 10 10 11 11
9 10 13 10 11 11 11 12 11 11 12 12 13 12 13 11 11 11 10 11 12 11 12 12 12 13 13 12 10 9 9 10 11 11 10 10 10 10 9 10 10 11 11
9 9 9 10 10 11 11 11 11 12 12 12 12 12 10 10 11 11 11 11 11 12 11 12 11 12 13 14 13 11 9 8 8 9 9 9 9 10 10 10 10 11 10
8 9 9 9 11 13 11 12 11 11 12 12 11 10 9 10 11 12 12 12 11 12 12 12 13 13 13 13 13 13 12 10 9 9 10 10 10 10 11 11 12 11 12
8 8 8 9 10 11 11 11 10 13 12 12 11 11 11 11 11 13 13 12 11 12 11 12 12 16 14 14 13 14 14 12 9 11 14 12 11 11 12 12 12 15 13
8 9 9 8 8 6 8 9 9 10 10 11 11 11 11 11 11 12 12 12 11 12 13 13 12 17 20 21 18 18 15 13 13 11 11 13 14 17 13 12 14 13 14
10 11 10 9 9 9 8 5 4 6 8 9 10 11 11 11 12 12 12 12 11 11 13 11 14 18 20 18 20 18 12 14 13 14 12 11 13 12 12 14 19 13 16
Wind_Direction
90 173 217 209 215 177 185 192 198 191 185 185 190 187 184 180 180 167 170 171 165 160 161 165 191 187 216 201 196 179 191 170 213 300 86 76 97 133 116 125 136 129 135
347 329 281 332 228 198 195 193 189 190 187 189 187 190 187 172 158 173 175 170 179 180 177 167 198 151 202 316 116 208 220 199 187 232 136 103 83 114 129 131 128 116 118
354 352 354 10 23 264 243 207 204 191 186 174 169 183 174 162 166 185 179 172 189 195 176 177 179 164 173 136 105 46 40 152 202 195 157 119 85 124 129 118 126 125 142
15 5 360 355 12 4 303 297 272 235 183 195 186 172 168 170 179 188 169 179 192 198 188 191 176 178 184 169 148 117 93 38 168 198 208 130 116 126 125 141 133 151 151
116 356 341 20 355 38 18 352 306 282 6 304 226 189 182 178 178 175 180 180 184 193 199 204 197 198 198 183 160 171 129 109 116 221 211 141 126 151 176 169 153 156 142
297 276 244 324 338 328 37 357 327 314 265 144 141 343 60 139 182 174 167 181 188 184 202 219 221 212 203 197 201 182 168 147 161 189 209 205 180 157 165 164 153 159 185
286 286 278 231 249 299 43 337 339 356 307 246 167 194 210 226 242 253 235 188 185 190 199 206 224 230 215 188 199 194 195 186 182 186 215 216 180 183 160 171 180 185 169
312 307 289 276 269 258 223 240 238 327 318 282 254 216 186 214 218 219 240 232 201 200 199 207 206 227 227 206 196 215 236 229 208 201 215 240 214 174 179 179 173 143 94
288 288 278 247 247 247 232 228 225 210 219 245 259 273 242 254 233 231 221 220 210 230 218 207 200 219 231 201 196 215 249 264 243 239 253 259 275 172 157 134 159 158 144
253 254 251 277 290 280 264 222 190 192 189 231 220 170 166 221 261 262 221 211 209 219 231 227 211 209 212 203 197 202 229 243 240 286 276 273 194 173 171 172 165 174 150
266 267 244 217 209 214 214 238 252 255 242 225 251 255 279 250 278 264 241 193 214 226 225 224 214 212 227 213 197 196 207 197 202 228 269 280 175 171 183 181 182 177 173
285 282 281 283 282 275 242 225 224 218 224 231 231 252 246 238 226 252 255 219 212 220 234 221 225 216 219 223 196 222 206 159 171 189 220 257 229 192 187 190 186 200 200
265 262 248 246 247 243 245 251 259 237 236 242 232 234 228 220 227 225 233 238 231 229 225 226 216 215 223 231 214 218 168 178 180 175 200 206 198 225 190 189 180 187 114
268 256 254 259 260 250 244 239 238 240 241 239 238 240 239 223 211 218 222 233 237 234 221 231 233 226 211 211 217 192 196 192 184 189 191 199 161 186 193 179 173 158 129
263 262 256 250 249 247 234 229 238 240 231 232 232 231 230 226 217 206 215 222 223 225 195 196 212 207 224 218 214 186 197 197 192 189 187 177 184 197 193 183 169 166 161
271 268 262 259 254 246 245 251 229 232 236 236 238 230 225 230 208 214 219 221 221 200 210 229 227 220 224 215 212 208 191 202 199 193 195 183 205 213 191 184 171 178 168
260 263 264 259 255 253 252 253 259 244 231 233 235 232 233 238 219 217 206 196 197 156 201 224 232 229 219 216 208 210 205 202 202 202 202 199 197 214 187 177 175 177 173
267 261 257 251 248 245 243 245 247 249 251 247 233 231 235 234 229 229 227 219 249 233 233 230 228 230 228 212 209 209 207 198 202 201 201 196 187 204 185 179 181 174 166
268 263 261 255 252 252 247 247 246 247 248 247 246 234 227 229 225 226 216 226 230 231 234 226 222 225 223 233 213 209 200 199 192 191 194 191 188 189 195 182 181 172 162
270 262 253 256 255 251 251 250 244 244 247 250 245 238 230 215 217 221 218 220 220 221 219 224 219 219 220 224 253 211 198 189 187 185 188 190 187 188 199 183 176 169 175
268 265 256 250 247 246 246 242 241 244 245 243 241 240 231 223 222 220 214 213 215 216 216 216 218 217 219 222 224 243 193 194 191 184 182 183 183 180 187 183 171 170 169
274 265 255 250 245 240 239 239 237 237 239 240 244 242 206 220 229 228 221 216 211 213 214 213 214 214 214 215 212 214 220 190 186 178 173 174 174 175 170 170 163 165 161
277 268 258 250 245 242 238 234 234 233 238 239 239 238 227 219 222 224 222 218 212 208 205 206 207 210 210 211 211 210 209 202 189 184 172 169 175 172 164 162 161 159 161
291 282 272 263 253 237 233 233 231 231 235 237 236 235 231 226 225 222 220 218 215 215 204 202 204 205 208 206 205 209 203 199 190 185 176 168 169 161 160 160 166 169 163
328 328 321 326 329 323 225 228 231 232 235 233 236 233 229 226 223 224 216 216 213 209 206 197 198 205 206 203 201 204 192 166 183 180 184 171 166 166 163 163 164 166 159
348 350 350 352 356 354 360 344 258 253 246 239 235 228 228 223 221 218 217 209 206 206 205 196 196 198 201 198 200 197 168 170 169 171 168 168 163 165 162 163 163 162 158